Tracking 22124 objects as of 25-Jan-2021
HD Live streaming from Space Station
objects crossing your sky now

STARLINK 1023

Track STARLINK 1023 now!
10-day predictions
STARLINK 1023 is classified as:


NORAD ID: 44728
Int'l Code: 2019-074R
Perigee: 552.8 km
Apogee: 555.9 km
Inclination: 53.1 °
Period: 95.6 minutes
Semi major axis: 6925 km
RCS: Unknown
Launch date: November 11, 2019
Source: United States (US)
Launch site: AIR FORCE EASTERN TEST RANGE (AFETR)
aabbcc
Your satellite tracking list
Your tracking list is empty




NASA's NSSDC Master Catalog

Two Line Element Set (TLE):
1 44728U 19074R   21025.19653908  .00000639  00000-0  61804-4 0  9998
2 44728  53.0561 299.0792 0002202  74.4493 285.6739 15.06405628 67147
Source of the keplerian elements: AFSPC